sat.trackr.live / text

‹ back to catalog

STARLINK-4209

NORAD 52855 · 2022-062AB

PAYLOAD ACTIVE UNKNOWN

§ Identity

Operator
Country
US
Launch date
2022-06-17
Launch site
AFETR
Launch vehicle
Mass (kg)
RCS (m²)

Purposes: comms

External: N2YO · Heavens-Above · Gunter

§ Orbital elements

Epoch: 2026-09-20T03:43:45.770304Z

Period
94.01 min
Inclination
53.1592°
Eccentricity
0.0001241
Mean motion
15.31705144 rev/d
Perigee alt
469.9 km
Apogee alt
471.6 km
Semi-major
6,848.9 km
B*
3.5378e-5
RAAN
218.4126°
Arg perigee
92.6346°
Mean anomaly
267.4797°
Rev number
23,545

§ Raw data

STARLINK-42091 52855U 22062AB  26263.15539086  .00000733  00000+0  35378-4 0  99952 52855  53.1592 218.4126 0001241  92.6346 267.4797 15.31705144235456

JSON: /api/v1/satellites/52855 · /tle

For live sub-satellite position, see the globe view (requires WebGL).

§ Visibility from observer

Set your observer location to see the next 7 days of passes ≥ 10°. The values pass through the URL so the page stays shareable.

No JS? Fill the form by hand. The geolocation button needs JavaScript.